sat.trackr.live / text

‹ back to catalog

STARLINK-35390

NORAD 65796 · 2025-218F

PAYLOAD ACTIVE UNKNOWN

§ Identity

Operator
Country
US
Launch date
2025-09-26
Launch site
AFWTR
Launch vehicle
Mass (kg)
RCS (m²)

Purposes: comms

External: N2YO · Heavens-Above · Gunter

§ Orbital elements

Epoch: 2026-09-20T12:00:11.341728Z

Period
93.91 min
Inclination
97.2835°
Eccentricity
0.0003571
Mean motion
15.33463089 rev/d
Perigee alt
463.0 km
Apogee alt
467.9 km
Semi-major
6,843.6 km
B*
4.8296e-4
RAAN
120.8770°
Arg perigee
87.9447°
Mean anomaly
272.2205°
Rev number
5,433

§ Raw data

STARLINK-353901 65796U 25218F   26263.50013127  .00015560  00000+0  48296-3 0  99972 65796  97.2835 120.8770 0003571  87.9447 272.2205 15.33463089 54336

JSON: /api/v1/satellites/65796 · /tle

For live sub-satellite position, see the globe view (requires WebGL).

§ Visibility from observer

Set your observer location to see the next 7 days of passes ≥ 10°. The values pass through the URL so the page stays shareable.

No JS? Fill the form by hand. The geolocation button needs JavaScript.